Location: Astronight Observatory
(42.6003°N, 71.2981°W)
Time: 04:01:22
(UTC-05:00)

Daily predictions for brighter satellites

Satellite Brightness Start Highest point End
(mag) Time Altitude Azimuth Time Altitude Azimuth Time Altitude Azimuth
ATLAS CENTAUR R/B 4.5 02:42:11 39° ESE 02:42:11 39° ESE 02:50:30 10° ESE
ADEOS II 4.0 02:56:18 10° NE 02:59:46 26° ENE 02:59:46 26° ENE
CZ-4C R/B 4.2 03:21:33 17° SE 03:23:08 20° ESE 03:27:07 10° ENE
Cosmos 2369 Rocket 3.2 03:29:05 39° NNE 03:29:05 39° NNE 03:32:36 10° NNE
GEOS 3 Rocket 4.3 03:41:44 10° SE 03:45:15 46° SE 03:45:15 46° SE
Cosmos 1833 4.4 03:49:19 44° N 03:51:01 66° ENE 03:56:35 10° SE
Cosmos 1624 Rocket 4.4 03:58:05 53° N 03:58:05 53° N 04:02:14 10° NNE
Cosmos 2056 Rocket 3.9 03:59:39 54° N 03:59:39 54° N 04:03:42 10° NNE
Okean O Rocket 3.7 03:56:32 10° N 03:57:38 17° N 03:57:38 17° N
Cosmos 972 Rocket 4.4 04:03:53 53° NNW 04:03:53 53° NNW 04:08:18 10° NNE
Meteor 2-10 Rocket 4.3 03:59:07 16° SSE 04:02:52 48° E 04:07:44 10° NNE
ATLAS 5 CENTAUR R/B 2.2 04:04:34 55° N 04:04:34 55° N 04:08:51 10° NNE
IRS-P2 Rocket 4.5 04:01:16 10° NNE 04:06:40 79° WNW 04:06:40 79° WNW
ERS-2 4.2 04:03:54 10° NNE 04:05:16 21° NNE 04:05:16 21° NNE
Cosmos 1943 Rocket 1.9 04:10:09 76° W 04:10:23 77° WNW 04:15:58 10° NNE
Cosmos 2263 4.4 04:15:05 50° NW 04:15:05 50° NW 04:20:06 10° NNE
CZ-4B R/B 3.2 04:11:08 10° N 04:16:39 60° WNW 04:16:48 59° WNW
Lacrosse 5 rocket 3.6 04:16:57 13° N 04:17:53 14° NNE 04:19:53 10° NE
Cosmos 2221 Rocket 4.2 04:14:32 10° S 04:18:57 56° E 04:23:25 10° NNE
Lacrosse 5 1.7 04:19:12 70° WNW 04:19:25 71° NW 04:24:30 10° NE
Nadezhda 2 Rocket 4.3 04:13:22 10° N 04:19:28 75° W 04:25:35 10° S
USA 234 3.2 04:16:39 10° NE 04:23:14 90° WNW 04:26:04 38° SW
Thor Agena Rocket 3.5 04:27:22 10° SSE 04:32:36 88° ENE 04:37:47 10° NNW
Meteor 1-14 Rocket 4.2 04:27:10 10° N 04:33:02 85° E 04:38:43 10° S
Okean 1-7 3.2 04:31:24 10° S 04:35:39 72° E 04:39:54 10° NNE
Cosmos 1452 Rocket 3.4 04:36:33 25° SSW 04:39:45 79° WNW 04:45:04 10° NNE
Cosmos 1782 4.3 04:36:17 10° SSE 04:39:56 37° E 04:43:38 10° NNE
Abrixas 4.2 04:41:04 25° NNE 04:41:04 25° NNE 04:43:00 10° NE
ADEOS II 2.6 04:35:46 10° N 04:40:35 38° WNW 04:40:44 38° WNW
Cosmos 1023 Rocket 4.5 04:36:35 10° NNW 04:41:52 87° ENE 04:47:08 10° SSE
Cosmos 1745 Rocket 4.3 04:35:44 10° N 04:41:53 67° E 04:47:57 10° SSE
Cosmos 1417 Rocket 4.4 04:36:35 10° S 04:42:46 84° W 04:48:56 10° N
ATLAS 3B R/B 4.0 04:39:05 10° S 04:46:07 43° ESE 04:52:56 10° NE
Cosmos 1606 4.4 04:45:04 10° SSE 04:48:36 35° E 04:52:10 10° NNE
Cosmos 1782 Rocket 3.5 04:45:13 10° NNW 04:49:40 64° W 04:54:02 10° S
Cosmos 1741 Rocket 4.4 04:45:41 10° NNW 04:50:54 64° ENE 04:56:06 10° SSE
Cosmos 2297 Rocket 4.4 04:48:16 10° N 04:52:50 24° NE 04:57:23 10° ESE
Meteor 1-26 Rocket 4.2 04:47:25 10° SSW 04:53:00 58° WNW 04:58:33 10° N
Cosmos 407 Rocket 4.2 04:54:01 31° W 04:54:10 32° W 04:58:48 10° SSW
Okean-O 2.8 04:52:34 10° N 04:56:52 50° WNW 04:59:52 19° SW
Cosmos 676 Rocket 4.4 04:54:15 10° NW 04:59:12 41° WSW 05:04:09 10° S
Meteor 1-25 Rocket 4.2 04:53:51 10° NNW 04:59:42 82° W 05:05:32 10° S
Tiangong 1 0.9 05:00:17 55° SW 05:00:46 72° SSE 05:03:42 10° E
SKYMED 2 3.5 04:57:44 10° SSE 05:02:05 89° W 05:06:27 10° NNW
Meteor 1-31 Rocket 3.3 05:01:51 10° N 05:05:27 36° WNW 05:06:42 28° WSW
Cosmos 2219 3.1 05:02:04 10° NNW 05:07:44 72° WSW 05:13:19 10° SSE
USA 81 4.1 05:05:15 10° S 05:10:32 86° E 05:15:50 10° N
CZ-4C R/B 2.2 05:06:48 17° SW 05:10:54 63° NW 05:16:54 10° NNE
Cosmos 2369 Rocket 3.8 05:10:53 15° WNW 05:11:46 16° NW 05:15:11 10° N
Cosmos 1140 Rocket 3.6 05:07:30 10° NNW 05:12:33 50° WSW 05:17:35 10° S
Cosmos 2227 Rocket 3.5 05:07:47 10° NNW 05:13:12 42° ENE 05:18:33 10° SE
Cosmos 1656 Rocket 3.9 05:09:36 11° SW 05:15:01 51° WNW 05:20:34 10° NNE
Okean 2 Rocket 3.3 05:11:01 10° NNW 05:15:13 45° W 05:19:24 10° SSW
Cosmos 614 Rocket 4.0 05:14:20 10° NNW 05:19:21 57° WSW 05:24:21 10° S
CZ-4 R/B 4.0 05:16:01 10° NE 05:19:31 26° E 05:22:57 10° SSE
CZ-2C R/B 4.3 05:17:19 10° NNE 05:21:48 34° E 05:26:22 10° SSE
Meteor 1-10 Rocket 4.2 05:18:35 10° S 05:24:08 84° W 05:29:50 10° N
Cosmos 1607 4.2 05:21:29 10° SSW 05:27:34 74° ESE 05:33:45 10° NE
S3M 4.2 05:24:58 10° SSW 05:31:03 47° WNW 05:37:06 10° N
Okean 1 Rocket 4.2 05:29:58 10° N 05:34:16 47° ENE 05:38:29 10° SSE
Cosmos 2151 Rocket 3.6 05:30:10 10° NNW 05:34:38 61° W 05:39:02 10° S
PAYLOAD A 4.2 05:32:53 10° NNE 05:37:38 71° ESE 05:42:27 10° S
Cosmos 1553 Rocket 4.4 05:32:39 10° SW 05:38:23 40° WNW 05:44:17 10° N
Cosmos 1850 Rocket 4.4 05:36:34 10° NNW 05:41:37 44° WSW 05:46:37 10° S
Cosmos 1633 2.5 05:42:35 10° N 05:46:13 76° W 05:49:48 10° S
ATLAS 5 CENTAUR R/B 3.7 05:46:26 10° WNW 05:49:27 16° NNW 05:52:39 10° N
COSMO-SKYMED 1 3.5 05:46:38 10° SSW 05:50:17 27° W 05:53:59 10° NW
Cosmos 1536 3.6 05:46:49 10° N 05:50:46 58° E 05:54:42 10° SSE
Ariane Rocket 3.0 05:46:44 10° N 05:51:47 65° WNW 05:56:48 10° SSW
SJ-12 4.3 05:50:03 10° NNE 05:54:10 73° ESE 05:58:16 10° S
Cosmos 1943 Rocket 3.9 05:52:18 10° WNW 05:55:07 14° NW 05:57:58 10° NNW
IDEFIX/ARIANE 42P 2.9 05:50:05 10° NNE 05:55:20 74° ESE 06:00:31 10° S
Lacrosse 5 rocket 1.4 05:54:08 10° NW 05:57:43 63° NE 06:01:18 10° SE
Meteor 1-28 Rocket 4.3 05:56:52 10° SSW 05:59:55 24° W 06:03:00 10° NW
Meteor 1-27 Rocket 3.8 05:54:45 10° SSW 06:00:30 71° WNW 06:06:24 10° N
